EW9826 Weather Reports


time (UTC)temp
F
wind
direction
speed
knots
gust
knots
rain 1hr
in
rain 24hr
in
rain mn
in
humidity
%
barometer
mb
20260904165600 67 293 5.2 10.4 0.00 0.11 0.11 73 1013.0
20260904164600 67 294 7.8 13.9 0.00 0.11 0.11 71 1013.1
20260904164100 67 289 8.7 14.8 0.00 0.11 0.11 73 1013.2
20260904163559 67 284 7.8 13.0 0.00 0.11 0.11 74 1012.9
20260904163100 67 273 6.1 12.2 0.00 0.11 0.11 74 1012.8
20260904162600 67 292 5.2 13.9 0.00 0.11 0.11 74 1012.8
20260904162100 67 290 9.6 17.4 0.00 0.11 0.11 74 1012.7
20260904161559 67 292 6.1 13.9 0.00 0.11 0.11 76 1012.7
20260904161101 68 294 8.7 15.6 0.00 0.11 0.11 76 1012.4
20260904154100 68 245 4.3 7.8 0.00 0.11 0.11 74 1012.2
20260904153559 68 267 6.1 13.0 0.00 0.11 0.11 75 1012.3
20260904153100 68 286 7.8 12.2 0.00 0.11 0.11 76 1012.5
20260904152559 68 284 7.8 13.9 0.00 0.11 0.11 76 1012.7
20260904150059 68 291 7.0 15.6 0.00 0.11 0.11 79 1012.2
20260904145600 68 280 5.2 12.2 0.00 0.11 0.11 80 1012.2
20260904142559 68 290 7.0 12.2 0.00 0.11 0.11 83 1012.0
20260904142100 68 262 6.1 11.3 0.00 0.11 0.11 82 1011.7
20260904141600 68 273 5.2 10.4 0.00 0.11 0.11 82 1011.7
20260904141101 68 281 6.1 12.2 0.00 0.11 0.11 83 1011.7
20260904140059 68 293 8.7 14.8 0.00 0.11 0.11 82 1011.6
20260904135600 68 272 7.8 15.6 0.00 0.11 0.11 82 1011.6
20260904135101 68 293 10.4 21.7 0.00 0.11 0.11 81 1011.7
20260904134600 68 288 4.3 17.4 0.00 0.11 0.11 82 1011.7
20260904133100 68 289 7.0 13.9 0.00 0.11 0.11 84 1011.2
20260904132559 68 273 7.8 15.6 0.00 0.11 0.11 85 1011.3
20260904132059 67 275 7.8 13.0 0.00 0.11 0.11 86 1011.2
20260904131559 67 269 6.1 13.0 0.00 0.11 0.11 86 1011.1
20260904131101 67 257 4.3 14.8 0.00 0.11 0.11 86 1011.1
20260904124559 67 261 5.2 13.0 0.00 0.11 0.11 85 1011.1
20260904124100 67 263 6.1 15.6 0.00 0.11 0.11 85 1010.7
20260904123600 67 280 6.1 14.8 0.01 0.11 0.11 85 1010.8
20260904123100 67 315 4.3 10.4 0.01 0.11 0.11 86 1010.7
20260904122559 67 257 6.1 13.0 0.02 0.11 0.11 87 1010.8
20260904121059 66 289 9.6 18.2 0.03 0.11 0.11 91 1010.8
20260904120059 66 266 6.1 12.2 0.04 0.11 0.11 93 1010.6
20260904115559 66 272 6.1 15.6 0.05 0.11 0.11 93 1010.6
20260904115059 66 271 7.8 14.8 0.05 0.11 0.11 93 1010.6
20260904113559 65 285 8.7 14.8 0.05 0.10 0.10 93 1010.3
20260904113100 65 269 6.1 10.4 0.06 0.10 0.10 93 1010.5
20260904112559 65 284 3.5 10.4 0.07 0.09 0.09 93 1010.2
20260904110059 65 278 5.2 11.3 0.07 0.07 0.07 92 1010.2
20260904105559 65 296 4.3 12.2 0.06 0.06 0.06 92 1010.2
20260904105100 65 275 4.3 10.4 0.06 0.06 0.06 92 1010.1
20260904104559 65 283 5.2 10.4 0.06 0.06 0.06 92 1010.2
20260904103100 66 306 6.1 10.4 0.04 0.04 0.04 87 1010.2
20260904102559 68 309 6.1 14.8 0.02 0.02 0.02 84 1010.1
20260904102100 71 307 9.6 17.4 0.00 0.00 0.00 86 1009.9
20260904093559 72 238 13.0 21.7 0.00 0.00 0.00 83 1009.6
20260904093100 72 251 11.3 20.9 0.00 0.00 0.00 83 1009.6
20260904090058 72 241 12.2 24.3 0.00 0.00 0.00 83 1009.6
20260904082558 72 237 9.6 22.6 0.00 0.00 0.00 83 1009.3
20260904082059 72 239 13.9 25.2 0.00 0.00 0.00 83 1009.3
20260904080059 71 230 13.9 25.2 0.00 0.00 0.00 84 1009.5
20260904075558 71 245 12.2 21.7 0.00 0.00 0.00 85 1009.3
20260904074559 71 228 10.4 25.2 0.00 0.00 0.00 85 1009.4
20260904074100 71 244 9.6 20.0 0.00 0.00 0.00 86 1009.5
20260904073558 71 244 10.4 25.2 0.00 0.00 0.00 85 1009.5
20260904073059 71 236 12.2 24.3 0.00 0.00 0.00 86 1009.8
20260904072559 70 249 12.2 21.7 0.00 0.00 0.00 86 1009.9
20260904072059 71 261 11.3 20.9 0.00 0.00 0.00 85 1009.9
20260904071558 71 236 10.4 25.2 0.00 0.00 0.00 85 1009.9
20260904071059 71 253 11.3 20.0 0.00 0.00 0.00 85 1009.9
20260904065559 71 250 11.3 26.9 0.00 0.00 0.00 84 1009.9
20260904062059 71 243 9.6 22.6 0.00 0.02 0.00 84 1009.8
20260904053558 70 258 11.3 24.3 0.00 0.04 0.00 85 1010.5
20260904052059 70 240 7.8 22.6 0.00 0.05 0.00 85 1010.5
20260904051559 70 240 10.4 26.1 0.00 0.05 0.00 85 1010.5
20260904045059 70 251 10.4 22.6 0.00 0.05 0.00 85 1010.8
20260904044558 70 256 8.7 17.4 0.00 0.05 0.00 86 1011.0
20260904044059 70 249 7.8 18.2 0.00 0.05 0.00 86 1011.1
20260904043558 70 227 7.8 22.6 0.00 0.05 0.00 86 1011.1
20260904043059 70 244 8.7 28.7 0.00 0.05 0.00 86 1011.2
20260904042559 70 248 10.4 22.6 0.00 0.05 0.00 86 1011.3
20260904040058 70 236 8.7 14.8 0.00 0.05 0.00 86 1011.7
20260904035558 70 223 7.0 18.2 0.00 0.05 0.00 86 1011.7
20260904035100 70 251 7.8 14.8 0.00 0.05 0.00 87 1011.7
20260904034558 70 255 6.1 17.4 0.00 0.05 0.00 87 1011.7
20260904034059 70 231 7.8 20.0 0.00 0.05 0.00 87 1011.8
20260904033559 70 237 4.3 17.4 0.00 0.05 0.00 87 1011.9
20260904033059 70 251 7.0 13.9 0.00 0.05 0.00 87 1012.0
20260904030058 70 240 7.8 13.9 0.00 0.05 0.00 87 1012.0
20260904024558 70 225 6.1 13.0 0.00 0.05 0.00 87 1012.2
20260904024059 70 256 5.2 11.3 0.00 0.05 0.00 87 1012.2
20260904023559 70 228 8.7 13.9 0.00 0.05 0.00 87 1012.2
20260904023058 70 230 6.1 15.6 0.00 0.05 0.00 87 1012.2
20260904022558 70 243 7.8 20.0 0.00 0.05 0.00 86 1012.6
20260904022059 70 254 8.7 17.4 0.00 0.05 0.00 87 1012.5
20260904021558 70 243 7.0 17.4 0.00 0.05 0.00 86 1012.5
20260904020059 70 263 5.2 13.0 0.00 0.05 0.00 87 1012.8
20260904014558 70 229 4.3 11.3 0.00 0.05 0.00 87 1013.0
20260904014059 70 240 6.1 13.9 0.00 0.05 0.00 87 1013.0
20260904013558 70 230 6.1 13.9 0.00 0.05 0.00 87 1013.2
20260904013058 70 231 7.0 13.0 0.00 0.05 0.00 87 1013.2
20260903232058 70 239 4.3 7.8 0.00 0.05 0.00 87 1014.3
20260903231558 70 248 3.5 8.7 0.00 0.05 0.00 87 1014.3
20260903230057 70 228 6.1 13.0 0.00 0.05 0.00 87 1014.8
20260903225558 70 233 4.3 11.3 0.00 0.05 0.00 87 1014.8
20260903225058 70 233 4.3 10.4 0.00 0.05 0.00 87 1014.8
20260903224557 70 250 5.2 13.0 0.00 0.05 0.00 87 1014.8
20260903224059 70 238 6.1 13.9 0.00 0.05 0.00 87 1014.8
20260903223558 70 241 4.3 11.3 0.00 0.05 0.00 87 1014.8
20260903223059 70 236 4.3 12.2 0.00 0.05 0.00 87 1014.8
20260903220058 70 247 5.2 13.0 0.00 0.05 0.00 87 1015.3
20260903215557 70 240 6.1 19.1 0.00 0.05 0.05 87 1015.3
20260903214557 70 236 6.1 13.0 0.00 0.05 0.05 87 1015.3
20260903214058 70 232 7.0 12.2 0.00 0.05 0.05 87 1015.3
20260903212058 70 244 4.3 13.0 0.00 0.05 0.05 87 1015.4
20260903211557 70 252 5.2 12.2 0.00 0.05 0.05 87 1015.4
20260903211058 70 238 5.2 17.4 0.00 0.05 0.05 87 1015.6
20260903204058 70 246 4.3 13.0 0.00 0.05 0.05 88 1016.0
20260903203557 70 233 4.3 10.4 0.00 0.05 0.05 88 1016.0
20260903203058 70 251 6.1 13.0 0.00 0.05 0.05 88 1016.1
20260903202557 70 241 6.1 10.4 0.00 0.05 0.05 88 1015.9
20260903201558 70 223 6.1 12.2 0.00 0.05 0.05 88 1016.2
20260903201058 70 233 5.2 11.3 0.00 0.05 0.05 87 1016.0
20260903193058 70 260 6.1 12.2 0.00 0.05 0.05 87 1016.2
20260903192557 70 228 5.2 11.3 0.00 0.05 0.05 87 1016.1
20260903192058 70 227 5.2 11.3 0.00 0.05 0.05 88 1016.0
20260903183058 70 258 4.3 11.3 0.00 0.05 0.05 87 1016.2
20260903182557 70 236 6.1 11.3 0.00 0.05 0.05 87 1016.3
20260903181058 71 240 4.3 14.8 0.00 0.05 0.05 86 1016.2
20260903174557 71 245 6.1 10.4 0.00 0.05 0.05 84 1016.3
20260903173557 71 244 4.3 10.4 0.00 0.05 0.05 83 1016.3
20260903173059 72 225 5.2 10.4 0.00 0.05 0.05 83 1016.5
20260903172557 72 246 3.5 8.7 0.00 0.05 0.05 82 1016.6
20260903172058 72 261 4.3 10.4 0.00 0.05 0.05 81 1016.5
20260903171557 72 339 2.6 7.0 0.00 0.05 0.05 81 1016.4